Theta_e
321 321 321 321 322 322 323 323 322 322 322 322 323 323 323 324 323 320 310 316 318 330 323 315 314 314 314 313 313 312 303 300 301 301 302 307 304 308 310 307 309 311 310 313 315
320 320 321 321 321 322 323 323 323 323 322 322 322 322 323 323 317 312 321 326 333 327 315 312 310 311 310 310 311 307 302 302 305 305 303 305 305 305 305 305 306 308 312 314 313
319 320 320 320 321 322 322 323 323 323 323 322 322 322 322 322 311 309 327 329 333 324 315 314 312 310 307 309 308 307 301 305 305 306 306 304 304 306 304 303 306 306 309 311 313
319 319 319 320 320 321 322 323 323 323 323 322 322 321 322 319 300 310 331 332 331 317 313 311 309 306 304 303 307 302 305 305 306 306 305 303 306 304 305 305 309 310 310 311 310
319 319 319 320 320 321 323 323 324 324 323 322 322 321 318 306 306 323 329 331 318 313 310 309 306 306 302 303 304 303 304 305 306 306 305 306 303 303 304 308 310 310 310 309 310
320 319 319 320 321 322 323 323 324 324 322 322 322 320 311 301 313 323 325 320 314 312 310 310 307 308 304 303 302 304 303 303 304 304 304 302 303 304 305 308 308 308 307 308 309
320 319 319 320 321 322 323 323 323 322 322 322 322 318 306 307 316 320 319 315 314 312 309 311 310 306 306 302 306 303 298 301 303 304 302 303 299 300 306 307 306 306 307 308 309
320 319 319 320 321 322 322 323 321 322 321 321 321 315 303 309 315 314 313 311 313 312 310 310 310 307 304 306 302 298 299 294 302 301 301 301 295 302 305 304 304 306 307 309 309
319 319 319 320 321 321 322 322 319 321 321 320 316 309 303 311 307 310 311 307 309 309 309 308 309 304 304 298 296 298 293 295 298 304 300 299 296 302 305 303 303 305 306 306 307
319 319 319 320 321 321 322 316 319 319 320 319 312 303 305 303 307 307 309 309 306 307 305 304 303 299 299 296 290 294 295 297 296 301 300 298 298 302 304 303 303 304 306 306 307
319 320 320 321 321 323 319 314 312 309 309 307 309 304 310 308 308 305 307 305 306 303 298 301 296 294 297 300 299 298 295 294 298 301 299 297 297 299 302 303 303 304 305 306 306
320 320 321 321 322 322 317 313 309 308 307 314 311 308 308 307 304 303 306 301 300 297 300 296 293 299 301 300 296 295 294 294 298 301 298 297 295 298 301 302 304 303 304 304 304
320 320 320 321 321 322 314 311 312 309 305 308 306 305 304 305 305 306 304 302 299 298 297 295 300 302 297 296 295 296 295 295 294 296 297 295 294 298 302 305 305 304 303 303 303
320 320 321 321 318 321 314 311 312 311 300 301 299 301 301 303 298 303 304 302 298 296 298 297 299 295 295 294 295 291 296 294 292 291 288 296 286 295 300 301 300 300 301 301 302
320 319 320 321 319 316 312 312 311 306 288 298 297 306 302 298 299 298 303 301 297 296 296 294 294 293 292 294 295 293 295 293 292 291 291 292 289 295 300 296 296 299 300 300 299
316 318 319 317 315 315 310 307 306 296 287 296 297 297 296 297 296 298 299 301 300 296 296 297 297 296 296 297 296 295 293 294 295 292 286 293 292 293 295 296 297 298 297 297 297
313 314 316 318 314 311 311 311 294 289 301 297 294 295 296 295 295 296 295 294 294 291 292 296 294 298 297 293 295 293 291 287 286 287 286 293 290 293 298 300 297 296 295 296 296
311 312 314 317 314 313 312 301 287 295 297 301 298 295 295 296 297 296 296 295 299 296 294 290 288 295 296 295 295 293 294 286 280 282 286 292 286 293 301 296 297 297 296 296 295
310 311 310 315 314 315 306 291 291 294 299 298 299 296 296 298 296 297 298 297 299 298 291 289 289 296 296 298 296 293 288 294 287 288 284 288 292 298 299 295 296 296 295 293 293
309 308 307 314 314 311 299 292 296 301 301 300 294 297 293 295 295 295 295 297 295 296 298 294 287 296 296 295 296 291 293 286 287 279 279 285 288 289 292 293 294 293 292 291 291
306 298 305 313 313 302 289 293 296 301 302 298 296 295 295 293 295 293 292 296 298 297 296 294 291 290 294 291 291 288 286 287 288 287 281 280 285 294 292 292 291 290 290 290 289
302 292 308 313 297 297 292 295 296 296 300 299 298 296 293 292 291 291 291 293 299 297 293 296 290 286 288 295 296 294 291 291 284 283 285 284 284 298 296 290 289 289 288 288 288
297 297 306 307 290 292 294 294 296 294 295 295 294 296 296 292 288 291 292 296 297 296 293 294 288 282 284 288 291 289 290 290 290 288 283 281 283 297 292 289 289 287 287 287 287
295 289 296 298 299 293 291 291 290 296 295 295 293 294 292 290 292 288 289 293 294 293 291 294 287 285 280 283 288 283 286 287 286 282 282 283 284 289 291 290 288 286 285 285 285
294 289 293 288 290 292 293 290 288 288 293 294 290 290 289 286 287 287 290 290 290 288 289 290 282 285 286 286 284 283 283 283 281 283 279 282 282 286 288 287 285 284 284 282 282
289 288 291 291 293 291 290 288 287 289 289 288 288 291 288 285 287 284 286 286 285 287 285 286 281 282 277 282 282 280 282 282 282 282 282 282 281 288 286 286 284 283 282 282 282
292 293 291 287 287 288 288 288 287 290 286 288 288 286 284 286 288 288 288 287 286 284 283 282 280 278 274 279 278 273 277 279 280 282 282 278 281 283 281 280 281 281 281 281 283
Wind_Speed
7 7 7 8 8 8 8 9 8 9 9 10 10 10 10 11 11 5 8 1 2 14 6 8 7 5 5 3 3 3 6 9 9 6 3 4 7 5 3 10 10 9 12 6 4
5 6 6 7 7 8 9 10 10 10 10 11 12 13 12 11 8 12 1 4 10 12 10 11 9 7 6 4 4 6 8 10 5 9 8 11 8 13 12 13 17 15 16 13 6
4 5 6 7 7 8 9 10 10 10 10 11 11 12 12 11 8 2 3 7 11 10 6 8 5 7 8 5 7 6 10 12 10 11 13 12 14 15 14 17 19 14 8 9 10
3 4 6 8 9 9 10 10 11 11 11 10 10 10 12 5 8 4 1 8 10 9 7 6 6 6 7 9 9 10 14 15 12 6 7 14 16 16 15 22 21 20 18 16 15
4 5 6 7 9 10 11 12 12 12 11 11 9 7 5 6 8 5 5 8 11 8 10 9 10 10 10 7 8 14 15 14 12 11 14 16 22 18 20 22 23 21 17 16 14
6 6 7 8 9 11 12 13 14 13 12 10 8 6 5 11 3 4 5 6 6 10 9 10 5 8 12 11 11 11 11 17 18 17 15 16 22 16 14 15 14 13 15 15 14
6 6 7 9 10 12 13 14 15 13 10 8 7 5 6 11 3 4 4 3 2 7 9 8 6 7 7 9 7 10 14 17 21 21 12 7 13 14 18 14 15 16 16 15 15
7 7 8 9 11 12 13 15 11 9 5 3 7 5 8 1 1 4 4 2 3 4 3 2 4 7 6 6 7 10 11 11 5 5 2 7 15 16 8 7 15 22 22 21 22
7 7 8 9 11 13 13 13 2 4 4 5 6 5 6 4 2 1 2 2 4 3 2 3 5 6 5 9 12 13 13 16 15 13 1 11 13 12 21 21 25 24 22 18 18
7 7 8 9 11 13 16 4 5 3 5 5 3 5 6 1 4 3 1 6 3 7 5 6 6 8 10 11 12 16 20 20 16 17 11 16 22 19 20 21 23 24 20 16 14
8 8 8 9 10 12 11 4 5 5 6 6 5 7 7 4 3 3 1 5 4 6 7 8 9 11 15 15 18 20 21 23 22 20 23 21 21 20 21 24 22 20 15 9 8
7 8 8 9 11 12 7 5 3 3 9 10 13 8 2 2 4 4 5 8 6 9 6 4 12 15 15 13 13 17 21 21 20 16 16 21 21 25 19 19 12 10 9 8 8
9 8 7 8 10 8 4 3 3 1 7 3 2 3 1 4 7 5 7 3 8 11 10 16 15 14 9 12 17 20 22 21 23 18 17 14 17 10 10 16 6 6 10 13 17
9 8 7 5 4 1 2 4 1 2 7 7 4 2 3 3 4 1 2 3 4 7 9 12 5 5 11 13 14 16 11 8 12 10 9 11 10 17 10 5 15 15 15 17 17
8 8 8 9 4 4 5 5 3 4 9 4 4 3 2 3 4 3 0 4 8 8 6 2 5 3 6 9 4 9 5 9 11 13 17 12 9 4 4 12 13 14 17 18 19
6 3 5 2 2 3 5 5 1 5 8 3 4 4 4 4 3 3 2 3 5 5 8 13 3 5 7 6 10 3 8 13 14 8 9 12 14 5 4 6 9 18 16 15 14
7 2 5 0 1 5 4 1 2 6 2 6 3 5 6 6 6 7 6 7 6 6 9 3 12 11 5 7 7 7 8 7 7 8 9 2 7 11 8 1 11 13 11 12 12
5 3 1 0 3 4 3 3 10 6 7 4 3 3 5 5 5 7 6 9 8 7 9 11 13 9 11 12 5 11 7 5 7 11 15 14 9 9 8 16 13 12 12 11 11
6 2 1 3 5 3 2 5 5 6 6 4 5 7 10 3 5 2 9 13 10 7 7 9 9 2 8 5 3 3 6 8 11 13 8 10 16 15 4 11 11 10 9 10 10
2 2 3 5 5 2 4 7 6 6 0 3 11 6 10 8 6 5 6 3 0 3 6 3 13 7 2 3 5 5 3 4 5 5 13 15 15 13 11 11 6 8 10 10 10
2 2 1 5 3 0 4 6 5 7 7 7 11 15 13 11 14 16 10 3 5 3 0 2 4 9 5 6 12 4 6 6 5 6 8 14 12 11 12 8 5 6 9 11 12
4 4 3 5 6 4 7 5 2 5 3 9 5 11 14 14 11 16 14 14 5 3 3 5 2 7 18 18 19 16 17 17 15 12 10 12 17 15 5 8 6 4 3 5 7
4 2 2 2 7 10 5 5 7 7 6 6 8 7 6 11 8 11 12 6 4 1 3 3 3 7 10 10 5 3 7 9 15 14 19 17 17 7 5 15 7 3 3 4 5
4 5 3 2 5 10 16 13 11 5 9 7 4 4 7 9 9 6 5 4 5 4 4 3 3 8 12 19 13 9 11 16 12 6 11 13 19 21 18 16 15 6 6 5 6
3 4 3 7 10 12 11 4 11 10 7 7 6 13 12 9 10 13 13 3 4 2 1 3 9 12 14 15 16 15 17 22 20 21 20 22 24 23 20 18 9 2 3 5 8
4 4 3 1 10 17 15 11 14 11 7 9 9 9 3 4 4 1 2 4 7 4 2 3 10 8 14 14 18 23 26 24 22 23 25 24 26 24 9 6 9 11 12 13 14
1 0 3 5 7 9 13 15 9 12 3 4 2 4 4 5 2 1 3 3 4 3 4 5 5 5 17 13 13 11 21 20 22 24 25 22 13 6 1 3 8 12 14 16 16
Wind_Direction
30 29 26 20 16 9 7 359 358 346 339 332 328 327 330 330 302 233 254 246 154 159 203 161 194 190 208 214 245 283 258 272 272 269 278 147 269 158 288 277 250 237 272 9 95
23 15 10 5 356 354 350 345 341 336 332 329 327 325 329 333 282 269 113 114 142 167 179 190 199 195 219 227 205 231 246 278 304 294 283 302 280 290 289 270 271 251 234 241 208
4 355 351 341 340 339 338 333 328 324 319 316 319 323 324 315 283 79 46 147 163 189 243 236 281 221 252 247 219 210 247 273 297 282 296 289 286 274 261 272 268 282 298 296 224
328 331 328 324 326 327 324 319 316 311 304 302 304 316 320 263 300 75 8 153 165 196 194 196 208 220 254 234 242 263 247 270 287 294 289 274 288 283 270 268 281 290 294 291 277
296 306 310 312 315 316 314 313 311 306 298 294 291 307 279 238 263 61 112 140 165 196 212 219 235 242 255 266 288 246 272 279 287 276 266 278 271 269 271 271 279 284 281 271 257
293 299 303 306 307 310 314 317 314 305 297 287 265 283 240 258 66 75 113 155 197 209 223 228 247 284 291 279 261 318 294 285 280 273 264 262 273 286 269 273 278 282 277 269 264
286 293 303 308 312 314 318 320 317 307 296 280 213 232 246 257 54 111 147 173 211 235 238 243 291 254 340 263 305 290 295 294 277 258 242 271 264 242 264 263 284 289 277 262 272
273 287 301 307 310 314 319 321 318 317 328 182 186 219 265 67 64 182 187 150 174 190 251 320 229 272 263 324 266 278 280 285 325 104 153 210 280 295 9 332 296 292 290 288 293
268 283 297 307 313 315 317 314 272 47 104 153 208 246 258 141 180 78 244 234 151 155 91 142 196 238 209 248 274 242 269 281 292 304 226 218 293 305 313 305 294 288 286 292 296
265 280 295 308 316 318 322 282 206 219 203 236 267 236 179 65 108 101 75 169 158 154 152 192 214 234 229 241 256 289 296 297 291 295 254 268 283 287 288 289 278 283 295 302 304
263 276 291 305 313 324 325 248 223 199 212 264 315 297 316 68 175 106 162 167 153 207 218 194 221 221 246 247 265 284 287 284 291 295 290 293 298 299 289 284 278 287 297 311 356
249 270 284 299 312 319 287 308 28 12 291 256 265 270 221 317 286 150 183 198 208 232 190 184 240 255 278 280 290 283 280 283 288 298 312 293 294 286 280 266 286 318 341 23 78
243 255 276 304 318 288 318 24 50 290 258 229 248 259 257 229 242 215 206 203 225 248 226 256 275 322 290 277 278 272 281 291 294 309 292 300 279 256 269 284 345 27 73 85 91
240 248 265 302 291 94 221 117 137 292 268 174 179 142 166 232 205 83 229 243 177 256 247 267 315 297 273 262 271 286 308 315 306 313 300 356 295 304 278 311 84 90 87 93 69
226 240 239 205 334 223 85 129 136 246 276 87 135 91 145 230 107 119 315 198 221 187 200 137 177 218 261 269 310 274 343 309 297 283 287 272 244 267 273 125 113 81 81 71 62
134 184 180 142 211 55 74 90 265 232 241 144 128 176 187 184 148 119 220 238 344 236 239 267 133 221 227 241 218 319 278 272 259 266 259 262 227 277 95 119 118 93 76 66 61
117 62 169 137 205 113 123 185 196 224 115 160 189 188 213 168 177 193 181 191 226 254 247 237 222 204 201 253 199 226 258 305 279 224 260 53 309 259 306 12 89 100 84 73 71
118 110 212 37 122 129 136 177 219 208 218 94 120 156 234 169 205 202 238 254 211 256 286 285 289 185 169 224 280 203 256 211 267 281 294 317 263 256 212 94 105 104 97 80 59
164 157 240 153 147 217 128 216 210 185 245 217 173 238 250 192 257 261 254 262 286 208 246 296 259 53 197 229 240 84 230 282 264 281 280 245 267 265 190 108 115 104 83 55 40
177 205 203 149 156 236 193 211 239 240 93 234 231 200 231 243 228 200 235 49 304 351 331 307 289 270 334 189 230 248 1 238 209 240 253 265 266 270 192 156 92 51 30 25 19
117 165 113 144 208 248 264 223 216 238 217 246 244 250 248 252 245 265 262 245 205 214 294 11 274 275 300 210 250 195 239 221 298 190 261 270 268 34 51 71 67 30 21 7 4
157 214 135 178 183 204 217 197 317 214 222 249 293 266 267 268 274 262 259 257 69 120 211 168 186 268 261 276 282 269 266 265 248 242 225 253 262 293 7 102 67 26 31 2 348
186 142 111 261 215 217 197 238 242 207 210 207 235 235 237 243 247 249 250 74 42 360 359 36 241 278 293 267 32 328 337 322 297 287 260 266 269 347 103 160 119 340 321 311 321
157 170 176 249 263 244 222 225 217 210 228 230 239 258 242 238 234 256 240 85 51 54 82 132 213 246 260 278 314 282 270 282 271 265 295 274 295 290 294 317 341 346 342 318 290
209 195 175 191 224 226 229 235 225 206 223 221 240 232 229 238 241 244 246 192 145 45 121 280 259 259 264 283 296 284 274 270 270 268 262 280 284 282 296 315 329 302 303 305 318
189 171 195 169 221 213 214 222 230 202 196 207 229 157 179 211 225 289 122 199 259 140 186 178 265 301 281 276 272 276 270 272 274 267 265 268 271 277 325 326 313 328 336 324 322
148 125 262 156 182 198 213 219 231 231 145 275 196 172 216 247 271 316 278 280 270 244 238 242 256 248 264 282 305 278 257 259 261 260 264 271 311 12 47 317 323 324 327 314 312